This is the latest recevied weather packets stored in our database for station/object IK2ILW-4. If no packets are shown the sender has not sent any weather packets the latest 10 day(s).
| Time | Temp. | Humidity | Pressure | Rain* | Wind** | Luminosity | Snow |
|---|---|---|---|---|---|---|---|
| 1787902972 | 20° C | 77% | 1023.4 hPa | 0.51 mm | - | 149 W/m² | - |
| 1787902662 | 20.56° C | 79% | 1023.4 hPa | 0.51 mm | - | 134 W/m² | - |
| 1787902370 | 20.56° C | 74% | 1023.4 hPa | 0.51 mm | - | 137 W/m² | - |
| 1787902066 | 20° C | 76% | 1023.4 hPa | 0.51 mm | - | 105 W/m² | - |
| 1787901763 | 19.44° C | 77% | 1023.4 hPa | 0.51 mm | - | 105 W/m² | - |
| 1787901461 | 19.44° C | 79% | 1023.4 hPa | 0.51 mm | - | 128 W/m² | - |
| 1787901156 | 20° C | 78% | 1023.5 hPa | 0.51 mm | - | 76 W/m² | - |
| 1787900856 | 20.56° C | 73% | 1023.5 hPa | 0.51 mm | - | 123 W/m² | - |
| 1787900556 | 20.56° C | 73% | 1023.5 hPa | 0.51 mm | - | 77 W/m² | - |
| 1787900272 | 20.56° C | 74% | 1023.7 hPa | 0.51 mm | - | 86 W/m² | - |
| 1787899956 | 20° C | 78% | 1023.7 hPa | 0.51 mm | - | 93 W/m² | - |
| 1787899653 | 20° C | 77% | 1023.7 hPa | 0.51 mm | - | 84 W/m² | - |
| 1787899372 | 20.56° C | 75% | 1024.2 hPa | 0.51 mm | - | 47 W/m² | - |
| 1787899057 | 20.56° C | 75% | 1024.2 hPa | 0.51 mm | - | 44 W/m² | - |
| 1787898770 | 20° C | 76% | 1024.2 hPa | 0.51 mm | - | 40 W/m² | - |
| 1787898468 | 20° C | 76% | 1024.2 hPa | 0.51 mm | - | 35 W/m² | - |
| 1787898161 | 20° C | 76% | 1024.2 hPa | 0.51 mm | - | 39 W/m² | - |
| 1787897869 | 20° C | 77% | 1024.2 hPa | 0.51 mm | - | 33 W/m² | - |
| 1787897556 | 19.44° C | 80% | 1023.9 hPa | 0.51 mm | - | 30 W/m² | - |
| 1787897271 | 19.44° C | 82% | 1023.9 hPa | 0.51 mm | - | 40 W/m² | - |
| 1787896958 | 18.89° C | 81% | 1023.9 hPa | 0.51 mm | - | 47 W/m² | - |
| 1787896670 | 19.44° C | 80% | 1023.6 hPa | 0.51 mm | - | 32 W/m² | - |
| 1787896359 | 19.44° C | 81% | 1023.6 hPa | 0.51 mm | - | 26 W/m² | - |
| 1787896057 | 19.44° C | 80% | 1023.6 hPa | 0.51 mm | - | 28 W/m² | - |
| 1787895773 | 20° C | 76% | 1023.7 hPa | 0.51 mm | - | 23 W/m² | - |
* Rain since midnight (hover to see other rain measurements)
** Current wind speed in m/s (hover to see current wind gust speed)